{"data":{"norad_id":59706,"intl_designator":"2024-087B","name":"ZHIHUI TIANWANG-1 01B","alt_names":[],"object_type":"PAYLOAD","status":"ACTIVE","operator":null,"country":"PRC","launch_date":"2024-05-09","launch_site_code":"XICLF","launch_vehicle":null,"mission":null,"orbit_class":"UNKNOWN","rcs_meters":null,"size_class":null,"mass_kg":null,"dimensions":null,"purposes":[],"wikipedia_slug":null,"has_3d_model":false,"image_url":null,"decayed_at":null,"tle_current":{"epoch":"2026-09-20T20:37:59.622240Z","epoch_age_seconds":239217,"freshness":"STALE","line1":"1 59706U 24087B   26263.85971785 -.00000025  00000+0  00000+0 0  9993","line2":"2 59706  53.1269 166.6389 0027356 201.1403 158.7886  2.00561008 16875","mean_motion":2.00561008,"eccentricity":0.0027356,"inclination_deg":53.1269,"raan_deg":166.6389,"arg_perigee_deg":201.1403,"mean_anomaly_deg":158.7886,"bstar":0,"rev_number":1687,"period_min":717.98602049308,"perigee_km":20109.780895233,"apogee_km":20255.099124169,"semimajor_km":26560.577009701,"source":"CELESTRAK","updated_at":"2026-09-23T09:00:19.528039Z"}}}